User: anonymous   Login
Location: Vancouver
(49.2500°N, 123.1330°W)
Time: 07:02:21
(UTC-08:00)
Language:

Transit 2A Rocket - Orbit

View from above orbital plane
View from above orbital plane
View from above satellite
View from above satellite

Ground track
Ground track

The orbit data is extracted from the following two-line orbital elements,

1 00047U 60007C   15061.60655415  .00000520  00000-0  13928-3 0  9992
2 00047 066.6652 284.4061 0236637 277.5311 079.8970 14.41522433856325
Epoch (UTC): 02 March 2015 14:33:26
Eccentricity: 0.0236637
inclination: 66.6652°
perigee height: 585 km
apogee height: 922 km
right ascension of ascending node: 284.4061°
argument of perigee: 277.5311°
revolutions per day: 14.41522433
mean anomaly at epoch: 79.8970°
orbit number at epoch: 85632

The dashed part of the orbit path shows where the satellite is in the earth's shadow,  

DLR